STARLINK-2143, 47733

Orbit data source: Space-Track

STARLINK-2143, 47733 is a payload satellite owned by SpaceX/Seattle (US) in LEO that was launched on Thu, 04 Mar 2021 UTC via an FALCON 9 launch vehicle from the Air Force Eastern Test Range (AFETR). Payload-class satellites include a variety of spacecraft equipped with specific instruments for various scientific and technological missions. These include communications satellites like Starlink; space stations such as the ISS; scientific satellites like the Hubble; Earth observation satellites from companies like Planet Labs, Umbra, and HawkEye 360; GPS; miniature CubeSats for education and research; and military/defense satellites.

Loading next visibility...
Identifier
47733, 2021-017M
Orbit
LEO
Country
Flag of USUS
Related business
Manufacturer
SpaceX/Seattle
Mission
Operational Commercial Communications
Bus & Motor
STARLINK, Unknown motor
Mass
260 kg wet, ~248 kg dry
Launch date (UTC)
2021-03-04 (5 years ago)
Launch vehicle
FALCON 9
Launch site
Air Force Eastern Test Range (AFETR)
Object type
Payload
Rocket body
Debris
Shape & HBR
Box + 1 Pan, 10.1 m
Radar Cross Section
13.562 m², Large (>1 m²)

Expand to show TLE details & history
Last TLE update: 3 days ago

TLE from 3 days ago
0 STARLINK-2143
1 47733U 21017M   26170.96598653  .00000522  00000-0  28605-4 0  9996
2 47733  53.1593 100.8837 0001470  99.8978 260.2189 15.31702141293389
Epoch: 2026-06-19T23:11Z
TLE epoch observation values (Epoch: 2026-06-19T23:11:01.236Z)
Latitude
-0.00004°
Longitude
-155.05886°
Altitude
471.805 km
Speed
7.631 km/s
True Right ascension
06h 43m 32s
True Declination
0° 00' 00"
Sunlit
Object was in daylight at epoch
Visualization orbit readout
Latitude
Unknown
Longitude
Unknown
Altitude
Unknown
Speed
Unknown
Apparent Right ascension
Unknown
Apparent Declination
Unknown
Sunlit
N/A
Visualization observer readout
Local Sidereal Time
23:18:30
Azimuth
Unknown
Elevation
Unknown
Doppler factor
Unknown
Orbital elements
Apogee altitude
471.997 km
Perigee altitude
469.983 km
Semi-major axis
6,849.127 km
Eccentricity
0.00015
Inclination
53.1593°
RAAN
100.8837°
Arg. of periapsis
99.8978°
True anomaly
260.2023°
Mean anomaly
260.2189°
Eccentric anomaly
260.2106°
Mean motion
3.82904 °/min
Orbital period
94.02 mins
BSTAR
0.000028605
Loading maneuver chart data...
Computing Atmospheric mass density...

Documentation

Showing up to 5 results
|